| time (UTC) | temp C | wind direction | speed KPH | gust KPH | rain 1hr cm | rain 24hr cm | rain mn cm | humidity % | barometer mb |
| 20260504234523 | 18 | 58 | 6.4 | 20.9 | 0.00 | 0.00 | 0.00 | 32 | 1005.2 |
| 20260504233024 | 19 | 358 | 3.2 | 20.9 | 0.00 | 0.00 | 0.00 | 32 | 1005.0 |
| 20260504231527 | 20 | 336 | 8.0 | 22.5 | 0.00 | 0.00 | 0.00 | 30 | 1004.8 |
| 20260504230017 | 20 | 25 | 8.0 | 22.5 | 0.00 | 0.00 | 0.00 | 31 | 1004.5 |
| 20260504224521 | 21 | 311 | 8.0 | 29.0 | 0.00 | 0.00 | 0.00 | 30 | 1004.2 |
| 20260504223022 | 21 | 346 | 9.7 | 27.4 | 0.00 | 0.00 | 0.00 | 30 | 1003.8 |
| 20260504221523 | 22 | 2 | 8.0 | 20.9 | 0.00 | 0.00 | 0.00 | 29 | 1003.7 |
| 20260504220015 | 22 | 274 | 9.7 | 24.1 | 0.00 | 0.00 | 0.00 | 29 | 1003.6 |
| 20260504214518 | 22 | 295 | 6.4 | 20.9 | 0.00 | 0.00 | 0.00 | 29 | 1003.4 |
| 20260504213023 | 23 | 309 | 9.7 | 16.1 | 0.00 | 0.00 | 0.00 | 27 | 1003.1 |
| 20260504211524 | 23 | 324 | 8.0 | 27.4 | 0.00 | 0.00 | 0.00 | 28 | 1003.0 |
| 20260504210031 | 24 | 297 | 4.8 | 14.5 | 0.00 | 0.00 | 0.00 | 29 | 1002.8 |
| 20260504204512 | 24 | 291 | 6.4 | 22.5 | 0.00 | 0.00 | 0.00 | 29 | 1002.7 |
| 20260504203024 | 24 | 316 | 6.4 | 17.7 | 0.00 | 0.00 | 0.00 | 30 | 1002.8 |
| 20260504201521 | 24 | 302 | 8.0 | 16.1 | 0.00 | 0.00 | 0.00 | 32 | 1002.6 |
| 20260504200026 | 24 | 329 | 8.0 | 19.3 | 0.00 | 0.00 | 0.00 | 35 | 1002.5 |
| 20260504194533 | 25 | 307 | 8.0 | 17.7 | 0.00 | 0.00 | 0.00 | 34 | 1002.4 |
| 20260504193017 | 25 | 294 | 9.7 | 22.5 | 0.00 | 0.00 | 0.00 | 34 | 1002.3 |
| 20260504191523 | 25 | 349 | 6.4 | 17.7 | 0.00 | 0.00 | 0.00 | 35 | 1002.2 |
| 20260504190021 | 25 | 321 | 4.8 | 14.5 | 0.00 | 0.00 | 0.00 | 36 | 1002.0 |
| 20260504184530 | 25 | 344 | 8.0 | 14.5 | 0.00 | 0.00 | 0.00 | 34 | 1001.9 |
| 20260504183031 | 25 | 34 | 8.0 | 19.3 | 0.00 | 0.00 | 0.00 | 35 | 1001.9 |
| 20260504181527 | 25 | 305 | 6.4 | 24.1 | 0.00 | 0.00 | 0.00 | 32 | 1001.8 |
| 20260504180021 | 26 | 280 | 8.0 | 16.1 | 0.00 | 0.00 | 0.00 | 29 | 1001.7 |
| 20260504174526 | 26 | 307 | 8.0 | 19.3 | 0.00 | 0.00 | 0.00 | 30 | 1001.6 |
| 20260504173026 | 26 | 326 | 4.8 | 12.9 | 0.00 | 0.00 | 0.00 | 34 | 1001.6 |
| 20260504171529 | 25 | 317 | 4.8 | 11.3 | 0.00 | 0.00 | 0.00 | 31 | 1001.7 |
| 20260504081524 | 11 | 218 | 1.6 | 4.8 | 0.00 | 0.00 | 0.00 | 67 | 1003.4 |
| 20260504044524 | 9 | 294 | 0.0 | 0.0 | 0.00 | 0.00 | 0.00 | 77 | 1006.2 |
| 20260504043025 | 10 | 294 | 0.0 | 0.0 | 0.00 | 0.00 | 0.00 | 76 | 1006.3 |
| 20260504041527 | 10 | 294 | 0.0 | 0.0 | 0.00 | 0.00 | 0.00 | 75 | 1006.5 |
| 20260504040015 | 10 | 294 | 0.0 | 0.0 | 0.00 | 0.00 | 0.00 | 74 | 1006.7 |
| 20260504034520 | 11 | 294 | 0.0 | 0.0 | 0.00 | 0.00 | 0.00 | 73 | 1007.0 |
| 20260504033022 | 11 | 294 | 0.0 | 1.6 | 0.00 | 0.00 | 0.00 | 71 | 1007.1 |
| 20260504031524 | 11 | 294 | 0.0 | 0.0 | 0.00 | 0.00 | 0.00 | 70 | 1007.1 |
| 20260504030028 | 12 | 294 | 0.0 | 1.6 | 0.00 | 0.00 | 0.00 | 68 | 1007.3 |
| 20260504024516 | 12 | 294 | 0.0 | 0.0 | 0.00 | 0.00 | 0.00 | 66 | 1007.4 |
| 20260504023020 | 12 | 294 | 0.0 | 1.6 | 0.00 | 0.00 | 0.00 | 65 | 1007.4 |
| 20260504021528 | 12 | 296 | 0.0 | 0.0 | 0.00 | 0.00 | 0.00 | 67 | 1007.4 |
| 20260504020029 | 13 | 296 | 0.0 | 0.0 | 0.00 | 0.00 | 0.00 | 65 | 1007.6 |
| 20260504014541 | 14 | 296 | 0.0 | 0.0 | 0.00 | 0.00 | 0.00 | 63 | 1007.7 |
| 20260504013016 | 15 | 296 | 0.0 | 0.0 | 0.00 | 0.00 | 0.00 | 61 | 1007.7 |
| 20260504011522 | 17 | 296 | 0.0 | 1.6 | 0.00 | 0.00 | 0.00 | 59 | 1007.7 |
| 20260504010025 | 18 | 296 | 0.0 | 1.6 | 0.00 | 0.00 | 0.00 | 53 | 1007.7 |
| 20260504004527 | 20 | 296 | 0.0 | 0.0 | 0.00 | 0.00 | 0.00 | 44 | 1007.7 |
| 20260504003028 | 21 | 296 | 0.0 | 1.6 | 0.00 | 0.00 | 0.00 | 34 | 1007.8 |
| 20260504001526 | 21 | 295 | 0.0 | 4.8 | 0.00 | 0.00 | 0.00 | 33 | 1008.0 |
| 20260504000037 | 22 | 290 | 0.0 | 6.4 | 0.00 | 0.00 | 0.00 | 32 | 1008.1 |